{"data":{"norad_id":64482,"intl_designator":"2025-133L","name":"STARLINK-34527","alt_names":[],"object_type":"PAYLOAD","status":"ACTIVE","operator":null,"country":"US","launch_date":"2025-06-23","launch_site_code":"AFETR","launch_vehicle":null,"mission":null,"orbit_class":"UNKNOWN","rcs_meters":null,"size_class":null,"mass_kg":null,"dimensions":null,"purposes":["comms"],"wikipedia_slug":null,"has_3d_model":false,"image_url":null,"decayed_at":null,"tle_current":{"epoch":"2026-05-25T02:40:13.323648Z","epoch_age_seconds":68516,"freshness":"FRESH","line1":"1 64482U 25133L   26145.11126532  .00019169  00000+0  65774-3 0  9994","line2":"2 64482  53.1585 121.4868 0001587  88.1993 271.9190 15.30195701 52897","mean_motion":15.30195701,"eccentricity":0.0001587,"inclination_deg":53.1585,"raan_deg":121.4868,"arg_perigee_deg":88.1993,"mean_anomaly_deg":271.919,"bstar":0.00065774,"rev_number":5289,"period_min":94.105610090196,"perigee_km":474.14027647798,"apogee_km":476.31553449898,"semimajor_km":6853.3649054885,"source":"CELESTRAK","updated_at":"2026-05-25T13:38:20.458665Z"}}}